Location: Martley
(52.2333°N, 2.3667°W)
Time: 20:02:37
(UTC+00:00)

PSLV R/B - Pass Details

Date: 11 December 2019
Orbit: 504 x 580 km, 97.8° (Epoch: 21 January)

Event Time Altitude Azimuth Distance (km) Brightness Sun altitude
Rises 05:07:09 0° 17° (NNE) 2,794 7.6 -26.3°
Reaches altitude 10° 05:09:20 10° 21° (NNE) 1,898 6.7 -26.0°
Maximum altitude 05:13:24 58° 101° (E) 683 4.5 -25.4°
Drops below altitude 10° 05:17:28 10° 181° (S) 1,893 6.6 -24.7°
Sets 05:19:38 0° 185° (S) 2,787 7.4 -24.4°
